Location: Madrid
(40.4000°N, 3.6830°W)
Time: 22:52:40
(UTC+02:00)

ISS - Pass Details

Date: 24 July 2017
Orbit: 400 x 408 km, 51.6° (Epoch: 24 July)

Event Time Altitude Azimuth Distance (km) Brightness Sun altitude
Rises 22:25:37 0° 221° (SW) 2,297 0.1 -8.7°
Reaches altitude 10° 22:27:43 10° 216° (SW) 1,442 -1.0 -9.1°
Maximum altitude 22:30:52 51° 139° (SE) 509 -3.7 -9.5°
Drops below altitude 10° 22:34:02 10° 62° (ENE) 1,450 -1.3 -10.0°
Sets 22:36:08 0° 57° (ENE) 2,312 -0.2 -10.3°
